Time,TemperatureF,DewpointF,PressureIn,WindDirection,WindDirectionDegrees,WindSpeedMPH,WindSpeedGustMPH,Humidity,HourlyPrecipIn,Conditions,Clouds,dailyrainin,SoftwareType,DateUTC
2013-02-05 00:04:00,44.5,42.0,30.07,WNW,296,0.0,-999.0,90,-99.99,,,0.00,weatherlink.com 1.10,2013-02-05 08:04:00,
2013-02-05 00:19:00,44.2,41.0,30.07,WNW,296,0.0,-999.0,89,-99.99,,,0.00,weatherlink.com 1.10,2013-02-05 08:19:00,
2013-02-05 00:34:00,43.8,41.0,30.06,WNW,296,0.0,-999.0,90,-99.99,,,0.00,weatherlink.com 1.10,2013-02-05 08:34:00,
2013-02-05 00:49:00,43.4,41.0,30.07,WNW,296,0.0,-999.0,90,-99.99,,,0.00,weatherlink.com 1.10,2013-02-05 08:49:00,
2013-02-05 01:04:00,42.9,40.0,30.07,WNW,296,0.0,-999.0,89,-99.99,,,0.00,weatherlink.com 1.10,2013-02-05 09:04:00,
2013-02-05 01:19:00,42.7,40.0,30.07,WNW,296,0.0,-999.0,90,-99.99,,,0.00,weatherlink.com 1.10,2013-02-05 09:19:00,
2013-02-05 01:34:00,42.2,40.0,30.07,WNW,296,0.0,-999.0,90,-99.99,,,0.00,weatherlink.com 1.10,2013-02-05 09:34:00,
2013-02-05 01:49:00,41.2,38.0,30.07,WNW,296,0.0,-999.0,88,-99.99,,,0.00,weatherlink.com 1.10,2013-02-05 09:49:00,
2013-02-05 02:04:00,41.0,39.0,30.07,WNW,296,0.0,-999.0,92,-99.99,,,0.00,weatherlink.com 1.10,2013-02-05 10:04:00,
2013-02-05 02:19:00,41.5,40.0,30.07,WNW,296,0.0,-999.0,93,-99.99,,,0.00,weatherlink.com 1.10,2013-02-05 10:19:00,
2013-02-05 02:34:00,42.4,40.0,30.07,WNW,296,0.0,-999.0,91,-99.99,,,0.00,weatherlink.com 1.10,2013-02-05 10:34:00,
2013-02-05 02:49:00,42.0,40.0,30.07,WNW,296,0.0,-999.0,92,-99.99,,,0.00,weatherlink.com 1.10,2013-02-05 10:49:00,
2013-02-05 03:04:00,42.6,41.0,30.06,WNW,296,0.0,-999.0,93,-99.99,,,0.00,weatherlink.com 1.10,2013-02-05 11:04:00,
2013-02-05 03:19:00,43.1,42.0,30.06,WNW,296,0.0,-999.0,94,-99.99,,,0.00,weatherlink.com 1.10,2013-02-05 11:19:00,
2013-02-05 03:34:00,43.2,41.0,30.06,WNW,296,0.0,-999.0,93,-99.99,,,0.00,weatherlink.com 1.10,2013-02-05 11:34:00,
2013-02-05 03:49:00,43.6,42.0,30.06,WNW,296,0.0,-999.0,93,-99.99,,,0.00,weatherlink.com 1.10,2013-02-05 11:49:00,
2013-02-05 04:04:00,43.6,42.0,30.06,WNW,296,0.0,-999.0,92,-99.99,,,0.00,weatherlink.com 1.10,2013-02-05 12:04:00,
2013-02-05 04:19:00,43.9,42.0,30.04,WNW,296,0.0,-999.0,93,-99.99,,,0.00,weatherlink.com 1.10,2013-02-05 12:19:00,
2013-02-05 04:34:00,44.3,42.0,30.04,WNW,296,0.0,-999.0,93,-99.99,,,0.00,weatherlink.com 1.10,2013-02-05 12:34:00,
2013-02-05 04:49:00,44.2,42.0,30.05,WNW,296,1.0,-999.0,91,-99.99,,,0.00,weatherlink.com 1.10,2013-02-05 12:49:00,
2013-02-05 05:04:00,43.6,41.0,30.05,WNW,296,0.0,-999.0,91,-99.99,,,0.00,weatherlink.com 1.10,2013-02-05 13:04:00,
2013-02-05 05:19:00,43.0,41.0,30.05,WNW,296,0.0,-999.0,91,-99.99,,,0.00,weatherlink.com 1.10,2013-02-05 13:19:00,
2013-02-05 05:34:00,42.9,41.0,30.05,WNW,296,0.0,-999.0,93,-99.99,,,0.00,weatherlink.com 1.10,2013-02-05 13:34:00,
2013-02-05 05:49:00,43.0,41.0,30.05,WNW,296,0.0,-999.0,94,-99.99,,,0.00,weatherlink.com 1.10,2013-02-05 13:49:00,
2013-02-05 06:04:00,42.9,41.0,30.05,WNW,296,1.0,-999.0,94,-99.99,,,0.00,weatherlink.com 1.10,2013-02-05 14:04:00,
2013-02-05 06:19:00,42.9,41.0,30.06,WNW,296,0.0,-999.0,94,-99.99,,,0.00,weatherlink.com 1.10,2013-02-05 14:19:00,
2013-02-05 06:34:00,42.9,41.0,30.05,WNW,296,6.0,-999.0,94,-99.99,,,0.00,weatherlink.com 1.10,2013-02-05 14:34:00,
2013-02-05 06:49:00,42.7,41.0,30.06,WNW,296,2.0,-999.0,94,-99.99,,,0.00,weatherlink.com 1.10,2013-02-05 14:49:00,
2013-02-05 07:04:00,42.7,41.0,30.07,WNW,296,4.0,-999.0,93,-99.99,,,0.00,weatherlink.com 1.10,2013-02-05 15:04:00,
2013-02-05 07:19:00,42.7,41.0,30.07,WNW,299,1.0,-999.0,94,-99.99,,,0.00,weatherlink.com 1.10,2013-02-05 15:19:00,
2013-02-05 07:34:00,42.9,41.0,30.08,WNW,299,0.0,-999.0,94,-99.99,,,0.00,weatherlink.com 1.10,2013-02-05 15:34:00,
2013-02-05 07:49:00,43.3,42.0,30.07,NW,307,1.0,-999.0,94,-99.99,,,0.00,weatherlink.com 1.10,2013-02-05 15:49:00,
2013-02-05 08:04:00,44.3,43.0,30.08,ESE,109,0.0,-999.0,94,-99.99,,,0.00,weatherlink.com 1.10,2013-02-05 16:04:00,
2013-02-05 08:19:00,46.0,44.0,30.08,ESE,115,0.0,-999.0,91,-99.99,,,0.00,weatherlink.com 1.10,2013-02-05 16:19:00,
2013-02-05 08:34:00,47.2,44.0,30.08,ESE,112,8.0,-999.0,88,-99.99,,,0.00,weatherlink.com 1.10,2013-02-05 16:34:00,
2013-02-05 08:49:00,47.8,44.0,30.09,ESE,113,6.0,-999.0,86,-99.99,,,0.00,weatherlink.com 1.10,2013-02-05 16:49:00,
2013-02-05 09:04:00,48.4,44.0,30.08,SSE,150,0.0,-999.0,85,-99.99,,,0.00,weatherlink.com 1.10,2013-02-05 17:04:00,
2013-02-05 09:19:00,49.0,44.0,30.09,SSE,161,0.0,-999.0,84,-99.99,,,0.00,weatherlink.com 1.10,2013-02-05 17:19:00,
2013-02-05 09:34:00,49.9,44.0,30.11,South,175,7.0,-999.0,81,-99.99,,,0.00,weatherlink.com 1.10,2013-02-05 17:34:00,
2013-02-05 09:49:00,50.3,44.0,30.10,South,176,0.0,-999.0,80,-99.99,,,0.00,weatherlink.com 1.10,2013-02-05 17:49:00,
2013-02-05 10:04:00,51.0,45.0,30.10,SSE,167,5.0,-999.0,79,-99.99,,,0.00,weatherlink.com 1.10,2013-02-05 18:04:00,
2013-02-05 10:19:00,51.2,45.0,30.10,SSE,161,0.0,-999.0,79,-99.99,,,0.00,weatherlink.com 1.10,2013-02-05 18:19:00,
2013-02-05 10:34:00,51.6,45.0,30.10,SSE,155,0.0,-999.0,79,-99.99,,,0.00,weatherlink.com 1.10,2013-02-05 18:34:00,
2013-02-05 11:04:00,51.7,45.0,30.09,SSE,159,5.0,-999.0,78,-99.99,,,0.00,weatherlink.com 1.10,2013-02-05 19:04:00,
2013-02-05 11:19:00,52.4,45.0,30.09,SSE,159,0.0,-999.0,77,-99.99,,,0.00,weatherlink.com 1.10,2013-02-05 19:19:00,
2013-02-05 11:34:00,53.5,46.0,30.09,South,172,0.0,-999.0,75,-99.99,,,0.00,weatherlink.com 1.10,2013-02-05 19:34:00,
2013-02-05 11:49:00,53.2,45.0,30.08,SSE,163,0.0,-999.0,75,-99.99,,,0.00,weatherlink.com 1.10,2013-02-05 19:49:00,
2013-02-05 12:04:00,53.3,45.0,30.07,SSE,157,0.0,-999.0,74,-99.99,,,0.00,weatherlink.com 1.10,2013-02-05 20:04:00,
2013-02-05 12:19:00,53.2,45.0,30.07,South,180,3.0,-999.0,75,-99.99,,,0.00,weatherlink.com 1.10,2013-02-05 20:19:00,
2013-02-05 12:34:00,53.0,45.0,30.06,SSE,163,0.0,-999.0,75,-99.99,,,0.00,weatherlink.com 1.10,2013-02-05 20:34:00,
2013-02-05 12:49:00,53.2,45.0,30.06,South,178,1.0,-999.0,75,-99.99,,,0.00,weatherlink.com 1.10,2013-02-05 20:49:00,
2013-02-05 13:04:00,54.1,46.0,30.05,South,181,3.0,-999.0,74,-99.99,,,0.00,weatherlink.com 1.10,2013-02-05 21:04:00,
2013-02-05 13:19:00,54.8,46.0,30.05,South,182,3.0,-999.0,73,-99.99,,,0.00,weatherlink.com 1.10,2013-02-05 21:19:00,
2013-02-05 13:34:00,55.9,47.0,30.05,SSE,166,0.0,-999.0,71,-99.99,,,0.00,weatherlink.com 1.10,2013-02-05 21:34:00,
2013-02-05 13:49:00,55.3,46.0,30.05,South,185,0.0,-999.0,72,-99.99,,,0.00,weatherlink.com 1.10,2013-02-05 21:49:00,
2013-02-05 14:04:00,55.1,46.0,30.05,SSE,153,4.0,-999.0,72,-99.99,,,0.00,weatherlink.com 1.10,2013-02-05 22:04:00,
2013-02-05 14:19:00,56.0,46.0,30.05,SSW,198,5.0,-999.0,70,-99.99,,,0.00,weatherlink.com 1.10,2013-02-05 22:19:00,
2013-02-05 14:34:00,56.7,46.0,30.04,SSE,168,0.0,-999.0,67,-99.99,,,0.00,weatherlink.com 1.10,2013-02-05 22:34:00,
2013-02-05 14:49:00,57.1,46.0,30.04,SSE,161,0.0,-999.0,66,-99.99,,,0.00,weatherlink.com 1.10,2013-02-05 22:49:00,
2013-02-05 15:04:00,57.7,45.0,30.04,SSE,162,5.0,-999.0,64,-99.99,,,0.00,weatherlink.com 1.10,2013-02-05 23:04:00,
2013-02-05 15:19:00,58.9,46.0,30.04,SSE,155,2.0,-999.0,62,-99.99,,,0.00,weatherlink.com 1.10,2013-02-05 23:19:00,
2013-02-05 15:34:00,57.8,44.0,30.05,South,178,0.0,-999.0,61,-99.99,,,0.00,weatherlink.com 1.10,2013-02-05 23:34:00,
2013-02-05 15:49:00,56.7,45.0,30.05,South,178,0.0,-999.0,65,-99.99,,,0.00,weatherlink.com 1.10,2013-02-05 23:49:00,
2013-02-05 16:04:00,57.9,45.0,30.05,SSE,167,4.0,-999.0,63,-99.99,,,0.00,weatherlink.com 1.10,2013-02-06 00:04:00,
2013-02-05 16:19:00,58.1,45.0,30.05,SSE,147,1.0,-999.0,62,-99.99,,,0.00,weatherlink.com 1.10,2013-02-06 00:19:00,
2013-02-05 16:34:00,57.6,45.0,30.05,SSE,152,5.0,-999.0,63,-99.99,,,0.00,weatherlink.com 1.10,2013-02-06 00:34:00,
2013-02-05 16:49:00,56.4,44.0,30.05,SSE,158,2.0,-999.0,64,-99.99,,,0.00,weatherlink.com 1.10,2013-02-06 00:49:00,
2013-02-05 17:04:00,54.8,44.0,30.06,SSE,160,0.0,-999.0,68,-99.99,,,0.00,weatherlink.com 1.10,2013-02-06 01:04:00,
2013-02-05 17:19:00,53.9,44.0,30.06,SSE,160,0.0,-999.0,70,-99.99,,,0.00,weatherlink.com 1.10,2013-02-06 01:19:00,
2013-02-05 17:34:00,53.5,44.0,30.06,ESE,122,0.0,-999.0,71,-99.99,,,0.00,weatherlink.com 1.10,2013-02-06 01:34:00,
2013-02-05 17:49:00,52.8,44.0,30.06,ESE,119,0.0,-999.0,73,-99.99,,,0.00,weatherlink.com 1.10,2013-02-06 01:49:00,
2013-02-05 18:04:00,52.3,44.0,30.06,ESE,118,5.0,-999.0,74,-99.99,,,0.00,weatherlink.com 1.10,2013-02-06 02:04:00,
2013-02-05 18:19:00,51.7,44.0,30.06,ESE,115,0.0,-999.0,76,-99.99,,,0.00,weatherlink.com 1.10,2013-02-06 02:19:00,
2013-02-05 18:34:00,51.2,44.0,30.07,ESE,112,0.0,-999.0,77,-99.99,,,0.00,weatherlink.com 1.10,2013-02-06 02:34:00,
2013-02-05 18:49:00,50.8,44.0,30.07,ESE,112,1.0,-999.0,77,-99.99,,,0.00,weatherlink.com 1.10,2013-02-06 02:49:00,
2013-02-05 19:04:00,50.3,44.0,30.07,ESE,115,2.0,-999.0,78,-99.99,,,0.00,weatherlink.com 1.10,2013-02-06 03:04:00,
2013-02-05 19:19:00,50.0,43.0,30.07,ESE,115,5.0,-999.0,78,-99.99,,,0.00,weatherlink.com 1.10,2013-02-06 03:19:00,
2013-02-05 19:34:00,49.6,43.0,30.07,ESE,113,0.0,-999.0,79,-99.99,,,0.00,weatherlink.com 1.10,2013-02-06 03:34:00,
2013-02-05 19:49:00,49.2,43.0,30.07,ESE,115,5.0,-999.0,80,-99.99,,,0.00,weatherlink.com 1.10,2013-02-06 03:49:00,
2013-02-05 20:04:00,48.8,43.0,30.07,ESE,113,1.0,-999.0,80,-99.99,,,0.00,weatherlink.com 1.10,2013-02-06 04:04:00,
2013-02-05 20:19:00,48.5,43.0,30.08,ESE,113,4.0,-999.0,80,-99.99,,,0.00,weatherlink.com 1.10,2013-02-06 04:19:00,
2013-02-05 20:34:00,48.3,43.0,30.09,ESE,114,0.0,-999.0,81,-99.99,,,0.00,weatherlink.com 1.10,2013-02-06 04:34:00,
2013-02-05 20:49:00,48.1,43.0,30.09,ESE,114,0.0,-999.0,81,-99.99,,,0.00,weatherlink.com 1.10,2013-02-06 04:49:00,
2013-02-05 21:04:00,47.9,43.0,30.09,ESE,114,0.0,-999.0,82,-99.99,,,0.00,weatherlink.com 1.10,2013-02-06 05:04:00,
2013-02-05 21:19:00,47.8,43.0,30.09,ESE,114,0.0,-999.0,82,-99.99,,,0.00,weatherlink.com 1.10,2013-02-06 05:19:00,
2013-02-05 21:34:00,47.5,43.0,30.10,ESE,114,0.0,-999.0,83,-99.99,,,0.00,weatherlink.com 1.10,2013-02-06 05:34:00,
2013-02-05 21:49:00,47.3,42.0,30.10,ESE,114,0.0,-999.0,83,-99.99,,,0.00,weatherlink.com 1.10,2013-02-06 05:49:00,
2013-02-05 22:04:00,47.1,42.0,30.11,ESE,114,0.0,-999.0,83,-99.99,,,0.00,weatherlink.com 1.10,2013-02-06 06:04:00,
2013-02-05 22:19:00,46.9,42.0,30.11,ESE,114,0.0,-999.0,83,-99.99,,,0.00,weatherlink.com 1.10,2013-02-06 06:19:00,
2013-02-05 22:34:00,46.6,42.0,30.10,ESE,114,0.0,-999.0,84,-99.99,,,0.00,weatherlink.com 1.10,2013-02-06 06:34:00,
2013-02-05 22:49:00,46.3,42.0,30.11,ESE,114,0.0,-999.0,84,-99.99,,,0.00,weatherlink.com 1.10,2013-02-06 06:49:00,
2013-02-05 23:04:00,45.9,42.0,30.11,ESE,114,0.0,-999.0,85,-99.99,,,0.00,weatherlink.com 1.10,2013-02-06 07:04:00,
2013-02-05 23:19:00,45.6,41.0,30.11,ESE,114,0.0,-999.0,85,-99.99,,,0.00,weatherlink.com 1.10,2013-02-06 07:19:00,
2013-02-05 23:34:00,45.0,41.0,30.12,ESE,114,0.0,-999.0,86,-99.99,,,0.00,weatherlink.com 1.10,2013-02-06 07:34:00,
2013-02-05 23:49:00,44.4,41.0,30.13,ESE,114,0.0,-999.0,86,-99.99,,,0.00,weatherlink.com 1.10,2013-02-06 07:49:00,